weather.gov     
National Weather Service

Regional Weather Roundup
NWS Homepage
This page is being discontinued on March 12, 2014.
The same data is available at this site. Please update your bookmarks.
Thank you, and we apologize for the inconvenience.
Please send an email to SR-SRH.Webmaster@noaa.gov with any concerns.


Current Version
Previous Version:    01  02  03  04  05  06  07  08  09  10  11  12  13  14  15  16  17  18  19  20  21  22  23  24  25  26  27  28  29  30  
   31  32  33  34  35  36  37  38  39  40  41  42  43  44  45  46  47  48  49  50  51  52  53  54  55  
[Printable]
292
ASUS44 KMEG 270600
RWRTN
TENNESSEE HOURLY STATE WEATHER ROUNDUP
NATIONAL WEATHER SERVICE MEMPHIS TN
1200 AM CST TUE JAN 27 2015

TNZ002-004-019-021-049-052-054-088>092-270700-
WEST TENNESSEE

CITY           SKY/WX    TMP DP  RH WIND       PRES   REMARKS
MEMPHIS INTL   CLEAR     43  34  70 W5        29.94F
NWS MEMPHIS      N/A     35 N/A N/A MISG        N/A
JACKSON        CLEAR     28  25  88 W3        29.93S
DYERSBURG      CLEAR     30  18  59 CALM      29.95S
UNION CITY     PTCLDY    27  27 100 CALM      29.91F
PARIS          CLOUDY    36  28  75 CALM      29.92F
LEXINGTON      MOCLDY    28  27  93 CALM      29.91F
SAVANNAH       CLEAR     30  28  93 S6        29.94F WCI  24
$$

TNZ008-025-027-028-033-062-065-066-270700-
NORTH MIDDLE TENNESSEE

CITY           SKY/WX    TMP DP  RH WIND       PRES   REMARKS
NASHVILLE      CLOUDY    34  31  88 SE3       29.93F
CLARKSVILLE    CLOUDY    34  31  88 SE3       29.92F
COOKEVILLE     CLOUDY    30  28  93 CALM      29.90F
CROSSVILLE     CLOUDY    29  25  85 CALM      29.88F
$$

TNZ061-075-076-078-094-096-097-270700-
SOUTH MIDDLE TENNESSEE

CITY           SKY/WX    TMP DP  RH WIND       PRES   REMARKS
FAYETTEVILLE   CLOUDY    34  30  86 MISG      29.92F
TULLAHOMA      CLOUDY    32  30  93 CALM      29.92F
WINCHESTER     CLOUDY    34  30  86 CALM      29.93F
MCMINNVILLE    CLOUDY    32  32 100 CALM      29.91F
SHELBYVILLE    CLOUDY    34  32  93 CALM      29.94F
$$

TNZ017-018-042-046-047-270700-
NORTHEAST TENNESSEE

CITY           SKY/WX    TMP DP  RH WIND       PRES   REMARKS
TRI CITIES     CLOUDY    30  22  72 W8        29.86F WCI  22
ELIZABETHTON   CLOUDY    27  21  80 W7        29.85S WCI  19
$$

TNZ012-013-036-069-073-074-270700-
CENTRAL EAST TENNESSEE

CITY           SKY/WX    TMP DP  RH WIND       PRES   REMARKS
KNOXVILLE      FLURRIES  30  29  96 SW7       29.93F WCI  23
OAK RIDGE      CLOUDY    32  28  85 SW3       29.94F
GATLINBURG     CLOUDY    28  25  86 W3        29.92F
$$

TNZ083-085-099-270700-
SOUTHEAST TENNESSEE

CITY           SKY/WX    TMP DP  RH WIND       PRES   REMARKS
CHATTANOOGA    CLOUDY    35  29  78 CALM      29.95F
$$

SKY/WX REPORTED AS FAIR MEANS FEW OR NO CLOUDS BELOW
12 THOUSAND FEET.





U.S. Dept. of Commerce
NOAA National Weather Service
1325 East West Highway
Silver Spring, MD 20910
E-mail: w-nws.webmaster@noaa.gov
Page last modified: May 16, 2007
NATIONAL WEATHER SERVICE: for Safety, for Work, for Fun - FOR LIFE